GFSGL_2pvu_pres_153.txt.gz
Presure
209 221 218 216 234 247 245 255 298 340 311 330 307 273 257 240 266 254 253 256 276 273 276 281 285 287 285 291 295 302 316 338 337 334 332 329 242 261 203 205 188 181 186
220 217 214 237 257 265 263 298 166 212 294 324 295 268 259 248 252 250 249 252 256 242 265 270 280 295 285 285 289 294 301 314 342 319 318 318 323 243 266 260 193 203 199
216 218 229 254 252 255 298 351 323 296 286 304 287 258 237 242 244 245 243 243 241 243 247 250 252 270 304 279 281 301 297 295 311 322 327 308 312 311 239 268 254 246 246
222 229 274 231 268 278 327 329 302 283 275 305 278 253 232 232 250 248 241 249 243 239 239 248 240 254 274 298 276 283 309 293 289 299 310 320 318 303 307 305 218 272 237
245 262 248 266 303 314 335 310 284 274 268 306 273 254 239 249 240 245 238 241 236 235 239 244 240 247 246 252 288 280 274 273 280 299 298 298 304 315 328 323 292 270 223
275 265 264 279 316 339 311 288 275 269 265 300 274 255 242 222 240 244 240 239 232 237 230 237 236 238 229 248 239 263 285 288 275 268 273 277 292 293 293 297 301 301 311
273 274 314 313 349 309 288 276 269 263 272 294 262 254 247 241 231 231 224 241 235 230 243 234 227 228 227 236 244 241 241 252 277 282 290 293 291 284 284 287 288 289 292
278 307 308 351 313 290 279 268 263 264 298 288 267 255 244 249 235 236 229 231 237 237 230 228 226 226 233 236 237 235 228 236 244 242 251 271 281 288 295 297 301 135 255
306 297 345 321 293 278 274 262 256 285 292 283 267 252 236 240 246 229 230 229 228 239 242 230 228 234 233 233 231 238 232 238 239 230 234 243 246 247 257 268 282 290 291
293 339 323 297 280 271 268 256 253 266 282 289 273 263 254 228 239 241 237 238 226 236 231 232 228 230 220 223 220 218 232 230 229 224 219 235 242 239 243 243 244 252 260
347 314 301 286 276 269 262 259 251 249 286 272 279 274 246 249 230 241 234 232 231 228 232 231 233 228 230 229 227 228 226 223 217 217 224 228 232 227 232 236 243 247 249
302 304 290 279 271 264 260 252 258 252 247 272 272 280 271 247 247 242 249 228 241 231 225 228 231 233 226 226 231 231 231 229 227 225 224 226 233 226 216 219 228 232 235
289 294 282 277 266 266 260 256 255 253 250 242 254 271 286 266 260 253 246 240 239 232 241 230 231 235 229 239 232 231 232 231 228 229 232 231 231 229 229 228 226 220 218
278 274 280 278 269 267 264 261 261 257 254 248 243 241 254 282 275 264 257 259 232 241 241 236 237 238 240 235 239 236 243 237 231 234 226 231 227 229 236 231 232 233 234
269 267 269 272 273 275 279 273 269 266 266 258 252 246 246 241 250 280 274 256 256 249 251 234 240 243 233 235 232 232 238 230 236 241 240 241 241 236 242 235 232 234 232
258 258 257 254 252 252 253 256 259 265 273 274 268 261 253 247 245 243 246 263 283 268 256 252 250 247 245 245 236 239 238 241 246 247 240 243 248 242 242 244 250 253 252
254 273 285 294 301 304 308 302 298 280 274 263 261 267 268 260 255 249 245 245 247 246 254 274 295 284 267 262 259 259 256 255 254 252 254 254 255 264 269 269 269 267 275
277 284 291 299 302 287 281 281 277 277 286 305 298 284 270 264 258 256 256 252 248 244 251 250 242 242 248 252 255 258 261 263 265 268 270 272 273 277 283 287 288 289 292
273 282 307 293 276 272 270 271 276 281 395 402 351 291 295 306 288 272 265 260 257 256 252 250 250 249 249 249 250 252 254 260 261 262 265 268 271 277 281 280 281 287 292
266 268 272 273 267 267 276 270 279 286 406 388 380 383 387 381 295 288 293 295 284 275 269 264 260 259 259 260 261 262 265 269 274 282 286 286 287 288 290 290 293 299 300
265 271 292 267 267 272 272 272 278 280 305 350 403 377 377 387 391 404 392 304 286 276 274 277 282 287 291 291 291 292 292 294 294 293 293 297 297 298 299 298 294 293 301
255 263 283 290 299 277 268 267 271 276 277 299 315 389 378 371 366 387 397 376 364 361 319 299 288 276 271 275 276 276 277 286 293 293 289 289 286 285 294 298 313 334 335
255 258 268 282 276 279 285 283 278 275 277 278 293 307 316 328 336 345 348 364 363 359 353 343 330 312 299 291 288 288 283 281 283 283 285 290 294 307 324 326 344 354 348
253 259 263 276 277 271 279 291 286 278 268 275 287 298 303 305 308 310 316 326 336 334 333 331 325 322 321 318 316 301 292 289 293 296 308 317 318 321 342 339 346 338 332
254 255 259 269 275 276 281 290 288 285 286 288 288 291 300 301 301 300 301 303 305 306 308 313 312 312 312 310 309 308 309 310 311 310 315 330 339 342 339 330 327 323 327
257 256 258 266 274 286 299 295 290 290 289 288 291 293 298 301 302 302 303 303 304 305 306 307 307 308 308 310 310 315 315 321 334 329 335 335 331 322 317 312 322 332 308

GFSGL_2pvu_pres_156.txt.gz
Presure
216 225 235 227 226 221 224 222 234 256 267 266 345 332 119 319 281 258 254 244 241 251 252 260 253 264 280 306 283 289 291 301 320 337 355 364 375 378 336 222 228 218 205
224 241 222 227 206 226 223 237 251 277 269 278 333 318 285 306 267 240 252 243 240 248 250 248 252 254 268 304 277 281 288 293 302 328 335 345 362 364 324 321 219 228 215
229 216 217 210 227 227 232 269 278 274 320 342 312 298 275 295 267 244 230 243 240 239 251 240 242 241 252 263 293 275 280 296 289 300 324 317 324 337 325 318 240 229 228
219 215 219 226 225 231 273 281 276 301 339 325 296 283 270 294 267 248 229 241 241 234 248 239 242 242 241 252 260 283 274 299 293 291 296 318 304 310 314 314 315 216 229
217 216 226 259 273 288 283 278 291 352 330 302 280 276 266 294 266 252 229 243 240 230 247 243 242 236 241 240 251 256 288 269 290 289 288 297 301 304 303 309 316 316 276
225 232 257 228 288 282 277 325 318 335 309 283 274 273 264 293 267 251 247 241 241 243 230 238 241 239 236 238 232 249 252 273 281 267 278 289 286 292 304 306 295 298 302
243 251 279 270 279 279 312 317 342 312 283 276 270 268 262 289 264 251 251 241 241 224 233 237 235 242 231 227 228 236 244 245 251 279 284 272 272 292 299 303 301 309 296
275 278 286 271 289 312 317 344 315 290 278 269 268 283 300 288 264 250 250 242 233 233 228 230 234 238 231 229 224 236 233 238 237 246 254 270 284 291 281 279 290 295 298
275 260 280 317 312 309 326 318 293 277 273 263 263 262 292 285 265 257 252 250 250 232 229 224 224 231 239 229 228 229 229 233 236 238 237 250 246 257 260 281 293 291 279
271 297 315 307 302 330 321 296 286 271 267 258 254 252 268 292 274 263 253 246 240 251 230 228 230 239 230 235 224 232 228 229 228 227 228 232 236 238 246 249 260 261 276
317 311 300 345 321 309 296 289 276 271 263 255 253 252 251 264 285 275 262 259 243 242 240 239 238 229 231 231 229 230 230 226 226 221 224 229 228 222 225 236 241 247 248
300 296 320 311 293 306 294 280 275 268 265 263 257 252 247 246 259 289 280 266 249 246 240 249 231 236 230 231 233 231 234 232 231 227 226 226 228 218 221 231 230 228 232
305 304 295 289 281 278 287 282 279 273 266 268 265 260 252 250 243 253 259 282 277 249 249 244 245 247 239 234 228 228 230 231 234 224 222 219 227 230 227 221 223 219 223
293 285 279 269 267 264 263 265 268 281 280 279 275 271 269 266 252 244 242 250 267 280 270 258 250 247 249 234 237 240 232 230 233 228 230 228 226 227 227 230 229 230 234
275 264 262 260 260 260 261 263 254 254 254 255 257 262 272 273 279 270 252 244 243 248 254 280 277 260 256 263 243 237 241 238 233 235 239 238 242 240 244 235 234 233 229
258 260 259 258 274 280 282 298 300 308 313 309 309 307 295 276 263 265 278 278 260 249 243 245 248 267 283 274 258 256 246 247 241 242 243 242 241 240 243 249 245 242 247
257 255 263 268 271 273 277 291 305 291 280 277 275 271 277 279 283 311 289 271 267 275 268 254 252 251 249 249 253 274 282 264 253 252 250 250 251 253 257 249 247 249 250
254 259 264 259 260 264 268 270 274 271 269 269 271 269 282 280 279 418 326 281 299 286 273 269 270 264 256 253 249 248 249 249 251 255 263 271 275 276 277 276 274 273 272
254 255 255 255 256 259 265 288 300 267 266 270 272 271 276 277 310 402 389 393 402 353 293 301 286 271 265 263 259 257 255 254 255 256 255 255 254 253 253 255 258 261 264
253 248 250 250 253 256 257 262 286 283 291 295 280 266 269 276 275 281 349 397 385 394 410 431 384 285 299 290 275 268 264 263 263 263 263 263 263 262 264 266 269 274 280
243 243 245 249 252 253 257 260 269 278 283 287 285 282 293 293 288 278 282 313 333 372 374 375 393 397 383 374 294 286 291 292 293 290 288 287 289 291 294 302 306 305 296
241 243 245 246 251 254 257 254 259 263 268 280 283 292 293 294 286 276 286 302 309 316 323 331 342 364 383 377 369 364 365 339 311 293 286 285 287 286 281 282 287 290 295
244 245 243 245 249 254 256 260 261 260 266 273 286 302 302 296 294 295 294 292 293 301 308 310 310 316 323 329 341 348 347 344 340 335 334 331 330 327 321 320 319 320 319
242 242 244 248 253 259 259 261 260 262 272 282 292 306 305 298 299 297 296 295 297 304 309 310 311 311 310 309 310 313 314 315 319 321 321 321 321 321 320 320 321 322 331
241 240 242 249 259 255 259 260 262 266 283 294 316 313 309 307 299 295 296 298 300 302 307 313 313 313 312 311 311 311 310 311 312 313 314 316 322 324 328 337 340 345 350
244 245 246 253 257 260 258 264 272 279 323 320 319 314 311 309 306 304 304 303 303 311 323 328 328 328 328 327 327 328 327 329 331 332 333 335 336 337 339 340 339 336 334

GFSGL_2pvu_pres_159.txt.gz
Presure
180 181 230 224 125 141 223 221 227 231 248 239 251 282 297 283 338 315 294 308 275 249 255 242 241 251 248 255 262 308 279 281 278 284 290 311 331 346 363 371 356 340 232
217 214 207 198 214 225 228 216 232 245 236 247 282 307 319 345 323 301 281 299 274 253 253 241 237 249 238 248 260 298 280 274 276 282 288 318 331 347 334 384 357 354 242
232 89 216 226 216 237 221 208 239 259 251 274 291 298 324 329 307 290 272 284 267 256 250 244 239 245 245 242 249 261 287 271 278 279 288 317 322 338 327 346 354 345 320
218 217 216 213 215 224 222 253 246 257 266 292 309 315 329 311 291 283 266 283 265 252 239 248 232 240 241 239 240 251 268 283 287 286 284 302 308 321 339 342 330 330 324
216 218 211 216 225 224 244 258 283 286 284 322 321 323 317 297 282 277 266 281 264 249 239 252 229 239 238 239 240 239 244 271 272 288 275 286 305 300 313 340 339 335 318
215 197 218 224 213 232 278 266 302 295 323 322 304 321 296 282 278 269 267 278 263 247 241 248 242 243 231 238 240 227 240 244 264 286 268 280 277 292 290 298 327 325 311
206 225 259 251 239 282 285 288 298 295 319 299 330 304 280 278 273 265 267 280 264 249 248 245 228 233 236 233 240 233 230 243 245 254 276 266 277 278 284 287 289 303 306
251 240 236 262 286 282 289 295 326 311 317 332 308 287 274 266 265 288 290 282 263 253 247 246 238 228 229 235 232 237 231 230 236 235 250 263 282 256 281 281 284 287 290
267 274 284 280 283 291 295 323 304 332 322 308 293 277 266 266 259 260 285 283 265 258 246 243 237 240 230 228 229 228 236 229 235 231 240 244 245 263 276 274 270 282 285
276 234 279 286 293 293 317 301 321 307 306 286 286 273 266 260 255 256 256 288 269 262 253 246 248 241 239 231 228 227 229 234 228 231 230 233 239 244 246 257 265 277 277
278 284 282 288 287 307 301 310 295 306 291 290 276 272 266 263 256 255 255 261 288 267 261 249 254 230 251 239 230 232 236 238 230 224 226 228 230 230 234 241 243 248 258
283 277 283 282 303 297 301 291 283 276 285 287 279 279 269 267 264 260 255 253 252 272 287 260 254 256 230 252 243 240 237 230 233 228 230 230 220 224 227 230 230 233 240
275 284 301 298 294 290 278 266 264 261 262 261 263 266 276 279 274 272 264 261 251 251 250 265 282 267 250 255 239 251 242 239 237 233 228 227 231 232 233 226 221 230 229
294 317 297 290 285 270 264 261 258 267 283 285 289 290 269 266 263 267 274 285 273 262 254 252 251 265 286 264 253 250 249 243 233 237 227 237 234 230 233 233 237 239 230
317 295 287 284 268 260 255 264 273 274 276 280 293 317 312 308 308 312 309 291 268 273 279 270 256 254 252 262 282 284 262 249 245 252 247 240 238 231 234 238 237 237 235
292 285 284 267 259 256 265 264 260 260 267 281 277 275 274 270 270 271 271 273 280 292 307 283 273 283 265 257 254 254 257 284 279 263 259 247 242 246 248 247 247 244 244
280 287 267 259 256 263 256 254 256 255 257 264 286 293 268 267 269 274 276 269 273 279 278 277 279 306 283 280 279 260 254 255 251 257 286 278 267 264 258 253 249 248 248
291 270 260 252 258 253 253 253 252 252 256 257 258 269 285 283 282 296 275 267 274 278 278 295 409 405 405 303 297 279 279 271 259 255 254 253 257 276 281 274 267 262 262
273 260 254 253 253 253 250 250 250 251 254 256 262 263 266 267 273 284 287 280 300 307 290 287 281 347 396 412 425 372 300 288 276 275 271 265 259 256 254 254 255 257 260
261 256 241 252 249 248 244 244 247 247 250 253 257 261 264 264 267 273 277 293 313 305 302 298 285 287 312 328 362 385 405 416 381 300 291 278 273 268 266 265 265 263 261
256 240 253 246 246 244 241 245 245 244 249 253 260 260 259 261 269 279 288 298 316 311 306 301 300 304 304 302 312 322 330 349 369 399 393 384 297 302 293 282 278 276 275
246 249 249 243 245 243 246 244 243 245 250 256 259 260 260 265 269 280 293 320 318 313 310 303 302 303 303 303 308 314 318 322 321 331 345 353 362 370 370 364 359 312 310
242 249 244 246 245 246 244 243 242 246 249 254 260 263 264 274 278 291 324 323 319 314 311 310 306 302 301 305 306 307 311 318 319 317 317 318 324 330 335 339 342 344 345
246 248 246 241 244 243 242 243 246 248 253 262 263 265 270 279 286 336 327 319 318 314 311 310 309 306 306 307 309 312 320 327 329 327 326 326 324 323 322 321 322 323 326
247 244 241 242 246 244 246 247 250 253 263 264 269 269 279 283 335 330 322 318 313 311 309 306 304 305 307 313 325 335 339 341 342 342 343 342 342 341 341 342 342 344 347
242 238 241 247 246 247 248 251 254 264 264 269 270 278 286 334 331 321 309 307 305 304 306 311 317 326 334 340 341 341 340 337 334 331 329 329 330 332 335 336 336 337 337

GFSGL_2pvu_pres_162.txt.gz
Presure
184 182 181 154 176 193 183 120 225 217 226 229 219 237 248 240 283 311 293 354 334 305 310 279 268 245 253 248 251 256 252 270 280 281 276 276 281 290 299 320 330 347 335
183 188 187 184 191 198 219 212 224 219 233 217 236 242 252 272 312 322 323 339 314 290 302 276 263 247 248 244 251 253 250 257 278 272 277 280 281 285 296 313 326 332 342
185 191 227 212 197 189 223 228 222 228 217 237 233 268 270 305 325 323 338 318 294 281 289 271 263 250 252 250 244 241 245 249 291 271 276 277 280 290 318 320 325 333 329
200 216 213 197 213 219 226 217 212 219 231 252 269 281 283 334 316 334 323 301 282 278 295 262 265 247 247 242 245 242 239 238 247 274 284 278 279 303 311 318 326 338 317
209 190 192 217 212 223 204 217 227 221 248 270 299 294 339 324 318 329 302 283 280 269 297 266 260 251 250 241 243 241 240 239 236 249 270 281 276 293 297 313 321 319 335
216 214 213 206 221 208 215 222 218 264 291 283 305 334 322 349 333 309 285 278 273 268 288 266 257 253 238 245 240 239 241 230 241 243 252 268 282 280 292 290 315 311 313
209 200 203 223 212 230 224 234 269 285 263 302 329 343 344 325 306 290 278 268 270 274 287 270 256 240 251 248 239 242 239 242 228 235 241 252 275 278 279 288 288 325 328
201 205 211 222 225 219 244 274 270 281 302 309 325 319 317 300 291 276 269 267 263 298 286 271 263 249 243 248 231 228 235 237 239 230 231 239 242 273 264 277 282 282 297
222 219 221 235 252 266 257 264 287 295 309 326 310 309 298 284 282 272 265 266 260 259 290 279 265 260 250 243 241 239 230 234 236 239 231 233 232 236 260 267 278 274 278
228 250 250 263 276 268 302 299 289 307 308 303 293 298 288 285 280 268 264 266 263 260 256 288 272 262 256 251 245 237 239 229 227 231 230 234 233 231 232 249 265 267 272
255 265 268 273 276 302 296 286 298 305 302 292 282 279 274 289 280 275 275 266 264 259 257 252 277 272 257 263 244 243 246 238 240 229 229 234 230 228 232 234 235 249 259
267 268 267 281 300 291 287 292 304 298 287 270 265 263 263 263 262 266 273 284 272 267 264 260 254 252 288 268 260 248 252 240 249 241 236 235 234 233 230 227 231 230 235
265 265 282 298 292 284 291 308 295 283 268 262 261 277 280 280 288 314 298 275 263 274 282 274 268 263 255 253 286 273 258 253 239 240 249 241 240 231 230 231 230 224 233
266 285 290 288 281 292 314 292 284 269 261 254 267 267 266 278 303 279 281 300 310 309 310 270 264 283 278 268 259 254 276 286 255 251 238 242 243 244 241 239 237 234 237
287 280 283 280 291 321 292 285 269 262 252 264 261 259 260 262 276 288 280 268 267 267 269 273 278 291 289 271 278 278 266 256 274 276 255 256 244 237 240 241 242 244 239
278 280 279 289 320 294 284 271 263 253 259 257 254 254 254 257 256 258 271 280 282 278 268 274 270 267 271 276 288 302 274 285 273 262 268 286 268 257 247 250 240 241 239
274 280 298 312 298 278 278 263 254 252 258 252 252 253 253 255 259 264 266 265 265 268 273 284 282 273 267 274 276 278 281 290 284 287 280 270 261 270 293 269 260 251 254
276 285 310 302 281 282 265 257 250 257 248 251 249 249 244 248 254 256 258 263 266 270 270 270 278 300 324 318 317 289 279 289 407 314 334 283 288 278 268 259 268 287 285
277 297 321 290 280 273 260 252 249 246 249 246 246 241 245 248 250 253 261 267 269 265 267 284 290 310 327 325 320 312 304 294 281 316 361 397 417 294 284 288 277 268 263
281 312 300 278 284 264 254 249 240 248 245 245 243 242 247 247 248 252 254 261 267 267 271 283 290 325 326 323 320 317 310 308 307 284 288 322 336 353 382 393 289 283 286
268 319 286 278 275 260 251 239 249 247 244 245 245 245 246 246 247 249 256 266 265 272 272 283 291 341 329 323 320 318 316 309 306 306 311 316 316 325 331 332 352 377 393
327 299 274 286 266 254 245 242 247 247 248 246 242 241 243 243 248 253 260 266 269 273 275 289 337 338 327 321 318 317 315 315 314 311 308 311 315 316 321 324 332 328 331
295 278 274 278 261 249 240 245 246 249 243 241 244 246 245 250 253 259 266 270 275 277 289 320 335 326 321 318 316 315 314 313 312 311 311 312 315 320 324 330 335 333 332
270 273 288 265 249 241 240 244 249 243 239 241 246 248 246 253 262 266 270 276 281 293 339 333 327 320 311 307 309 309 308 308 309 310 314 325 342 349 351 351 352 351 351
278 284 261 248 240 239 246 247 241 239 242 245 244 248 256 265 267 275 277 285 307 348 341 332 325 323 319 316 320 326 330 339 342 344 346 347 347 345 342 340 339 338 338
276 251 246 241 240 243 245 240 240 244 242 245 253 262 264 272 276 281 292 362 356 350 347 343 342 343 344 344 342 340 340 343 343 344 341 336 331 332 333 334 335 335 336

GFSGL_2pvu_pres_165.txt.gz
Presure
187 182 183 184 187 190 193 195 194 190 211 155 194 211 211 190 225 226 247 281 314 345 351 346 312 296 289 276 262 257 254 255 250 256 280 277 278 284 277 278 294 279 298
181 183 185 187 193 196 195 176 207 210 90 219 201 228 201 226 217 189 283 304 357 335 343 320 292 299 281 272 256 252 249 249 248 253 270 274 271 274 277 276 283 300 317
190 193 194 201 204 201 203 219 206 172 202 195 224 212 205 224 240 290 322 351 341 345 329 302 286 279 283 265 257 250 252 250 244 238 252 278 269 268 268 272 278 289 303
164 231 207 189 232 211 217 199 194 191 226 213 207 226 220 242 270 314 358 370 351 329 308 293 286 269 276 265 254 244 249 246 242 241 242 260 284 277 271 271 281 299 302
185 199 207 214 184 217 206 197 199 235 215 225 220 195 231 281 312 323 356 339 326 309 290 287 284 267 272 261 259 246 248 240 245 239 237 244 261 278 274 276 299 304 312
194 210 211 217 217 200 176 214 236 215 222 213 228 246 281 317 311 343 327 319 309 289 281 280 276 267 273 257 261 245 245 236 239 247 241 239 247 263 275 273 288 292 330
208 211 207 169 217 217 216 237 221 217 213 230 244 279 301 314 330 322 312 305 296 279 275 273 266 266 274 252 253 254 249 244 239 238 243 235 236 241 263 271 276 286 296
211 176 216 219 229 227 241 230 219 213 241 254 258 317 300 327 313 309 302 291 286 276 268 269 262 302 286 261 251 242 246 247 240 241 236 240 234 234 243 256 271 277 283
204 217 223 223 229 234 225 216 218 235 244 258 321 299 319 313 303 290 298 294 283 277 270 268 261 263 292 279 262 251 244 249 242 230 236 236 233 231 235 241 251 270 276
215 218 225 196 221 220 210 232 264 248 270 281 300 316 310 300 284 274 268 267 276 289 273 273 267 265 259 294 276 263 250 245 247 243 239 241 240 236 234 230 240 244 259
216 219 204 224 217 214 243 236 270 271 279 300 292 309 301 286 272 267 274 287 289 275 266 279 285 273 262 258 269 280 263 260 244 246 239 238 237 235 239 233 230 232 240
213 224 224 227 242 248 256 270 273 278 303 291 312 301 291 272 264 267 272 288 307 284 307 322 275 273 284 276 268 256 268 274 260 259 247 242 236 237 235 240 238 235 235
242 248 250 248 243 262 269 271 282 300 288 314 301 292 276 264 258 265 265 266 287 301 274 276 293 305 307 275 267 284 275 263 258 279 264 261 246 250 256 241 236 240 238
247 242 249 257 261 264 270 289 296 290 286 305 290 280 265 256 263 260 254 264 262 265 277 287 271 267 267 269 277 294 283 270 283 274 261 287 273 255 252 241 254 241 247
249 254 254 255 266 279 288 290 287 287 311 291 283 270 261 252 261 251 256 258 258 262 265 263 264 269 275 279 274 272 270 270 288 288 282 284 269 280 277 261 252 243 251
258 260 266 269 289 287 283 283 280 287 295 283 274 264 254 255 244 254 252 255 252 254 255 254 260 261 263 262 265 270 282 289 275 273 273 300 288 288 272 283 281 264 257
262 282 292 280 279 277 275 276 288 311 284 279 268 259 252 255 244 252 249 248 248 251 250 253 258 263 271 272 274 274 289 308 282 347 320 275 283 276 291 292 276 268 279
276 273 273 272 270 274 277 287 317 299 276 274 265 255 251 251 247 248 246 246 245 249 249 251 256 257 266 271 274 284 279 294 307 353 337 323 317 287 285 280 324 286 287
277 273 275 272 275 270 286 281 311 287 276 271 262 253 247 251 246 245 244 246 247 246 249 248 251 253 265 271 275 282 282 297 330 349 339 332 326 314 316 297 283 325 352
276 277 274 267 267 269 285 265 299 276 278 266 260 251 245 251 245 245 247 248 247 248 247 245 251 255 267 271 277 280 290 309 342 343 333 328 325 324 317 315 314 307 281
278 291 289 291 270 271 277 312 291 273 277 264 255 248 244 246 246 245 250 247 248 247 248 250 252 264 268 277 279 289 306 340 338 334 330 325 322 323 322 320 316 313 313
262 269 278 277 269 264 284 312 280 274 274 262 252 246 241 244 246 251 244 241 246 245 249 253 265 267 278 280 290 315 349 341 333 326 321 322 322 321 321 321 322 322 322
296 305 330 331 338 335 307 287 269 279 269 258 247 241 241 246 250 242 240 246 243 252 254 265 266 279 282 293 347 354 344 338 331 325 320 313 311 313 315 317 318 320 321
318 316 312 302 288 277 276 264 283 277 262 248 241 241 248 249 243 243 244 247 253 255 265 269 280 285 297 362 356 351 346 341 337 333 329 327 329 334 339 345 350 355 357
281 282 277 273 265 266 281 284 276 255 244 241 243 248 246 243 243 246 252 254 260 266 277 279 292 353 355 342 350 348 345 344 342 342 342 343 345 344 346 349 349 347 344
274 280 264 266 280 289 274 254 245 243 245 248 246 243 243 245 251 253 257 266 271 277 286 302 354 344 343 327 329 329 326 327 336 337 335 334 332 330 328 328 330 333 336

GFSGL_2pvu_pres_171.txt.gz
Presure
183 199 205 197 193 191 192 190 190 178 187 171 193 200 204 190 209 192 196 204 210 208 197 215 229 250 250 262 365 348 324 309 305 287 279 270 265 260 256 256 258 284 289
196 184 178 203 199 202 199 196 182 172 183 183 176 192 191 204 210 209 208 220 222 215 228 225 240 251 255 351 347 331 306 299 293 286 272 266 261 253 254 250 252 276 286
189 191 186 182 180 176 172 173 174 184 178 184 190 197 192 194 201 208 209 213 225 211 221 229 252 250 265 340 327 312 292 290 292 280 270 262 256 252 256 245 248 274 268
183 195 194 190 190 186 178 174 192 192 193 186 198 203 199 208 222 218 212 217 224 218 231 250 239 259 344 325 315 300 288 292 284 284 265 261 253 251 253 246 242 280 276
184 199 193 198 198 176 200 186 186 191 202 196 206 212 210 214 217 216 213 223 222 226 243 239 250 273 326 313 309 284 287 282 279 274 268 263 252 246 249 241 244 242 272
226 208 195 209 210 200 210 209 206 203 191 214 210 217 218 222 214 219 219 228 220 240 250 247 256 328 304 290 298 294 286 276 274 275 270 263 256 251 244 243 247 240 244
232 222 225 224 217 207 209 212 218 204 205 214 218 215 217 216 215 222 219 230 236 246 248 254 330 308 294 293 309 297 293 278 270 279 265 265 259 251 248 246 240 242 240
237 230 224 215 212 216 216 217 214 214 213 214 214 219 215 222 218 235 229 229 247 256 255 271 313 294 288 283 303 306 292 285 272 293 269 263 259 257 257 245 245 240 244
228 247 236 231 216 218 221 220 209 210 212 217 217 222 223 228 230 246 240 245 253 249 274 322 299 284 280 274 313 295 308 278 288 270 294 263 259 255 255 250 250 242 244
244 233 235 224 213 217 212 219 213 209 214 222 224 226 233 230 249 248 244 252 254 270 311 307 289 278 272 266 265 300 277 333 286 298 272 282 261 259 255 254 250 251 244
235 237 231 228 226 209 223 221 220 221 221 225 230 233 242 246 269 267 250 252 270 305 327 296 284 273 270 263 273 268 282 275 272 304 287 294 271 282 272 262 256 253 252
236 233 228 229 227 227 227 227 226 228 229 231 236 255 269 264 256 254 251 270 278 293 313 288 276 267 264 258 260 261 266 268 272 276 270 268 282 281 284 274 283 265 256
236 237 237 236 232 235 229 233 234 236 236 267 266 258 260 257 253 250 266 264 284 318 302 282 272 266 259 256 256 253 251 254 255 258 264 266 267 269 277 278 273 293 272
234 237 236 235 235 239 241 241 264 261 261 253 255 251 250 252 250 266 261 283 279 313 292 280 269 265 259 254 255 251 244 249 250 249 249 252 253 255 254 263 269 271 278
250 246 245 239 242 255 253 250 252 252 250 249 246 247 245 252 262 267 278 277 269 313 285 280 267 264 258 254 250 250 250 247 249 251 252 252 250 259 258 250 253 274 287
263 263 257 253 252 251 251 250 245 243 244 244 242 248 254 260 284 278 277 278 267 310 288 278 270 263 254 254 252 252 251 252 251 250 251 254 254 252 254 261 260 272 280
254 255 254 252 250 247 242 246 247 243 246 245 251 255 274 279 275 278 280 251 276 269 293 276 275 265 257 252 253 253 247 249 253 256 251 252 253 252 253 263 270 280 289
254 254 253 252 251 250 246 247 245 242 250 254 266 282 275 274 271 267 280 288 291 271 297 280 274 271 263 254 250 248 250 250 254 254 248 252 251 252 263 268 278 287 293
255 254 253 251 250 252 253 255 254 270 282 276 272 272 270 283 281 280 266 275 279 264 300 284 277 275 266 260 249 247 247 250 252 250 252 252 254 264 267 278 284 296 322
267 265 264 263 287 283 280 275 274 271 265 270 266 269 276 288 286 288 267 267 272 265 290 286 277 277 271 263 251 246 247 251 252 251 252 258 264 270 278 285 301 373 377
286 283 279 279 275 271 270 271 261 261 265 265 281 288 286 293 299 329 305 290 301 287 298 275 278 278 270 258 246 247 249 252 250 252 259 264 273 278 290 302 363 338 327
278 271 264 264 272 269 266 266 265 263 276 287 280 304 340 341 342 333 325 317 304 284 269 273 281 279 255 246 247 248 252 249 256 258 266 274 282 295 325 342 334 347 336
270 270 272 267 274 275 278 281 282 284 301 316 318 293 284 277 273 271 273 274 274 280 286 279 257 248 246 246 250 250 253 256 262 270 276 286 299 340 353 348 342 338 332
274 272 273 275 282 285 292 311 341 333 331 305 280 275 272 265 268 280 291 288 260 252 249 245 248 251 251 250 252 256 258 267 272 282 291 303 372 368 355 339 344 333 333
281 287 290 304 325 343 333 330 316 292 278 276 278 275 277 278 290 253 250 244 244 248 250 250 250 251 254 259 262 267 271 280 284 296 313 375 368 355 352 291 341 338 340
333 330 325 317 307 298 293 285 276 271 274 279 284 286 259 247 243 244 248 250 250 250 252 256 262 263 267 273 278 280 287 297 307 342 367 348 312 300 306 298 312 315 311